Tracking 18030 objects as of 28-March-2017
HD Live streaming from Space Station
objects crossing your sky now

DMSP 5D-2 F11 DEB

Track DMSP 5D-2 F11 DEB now!
10-day predictions


NORAD ID: 29070
Int'l Code: 1991-082BR
Perigee: 783.5 km
Apogee: 804.4 km
Inclination: 98.8 °
Period: 100.6 minutes
Semi major axis: 7164 km
RCS: 0.0089 m2 (small)
Launch date: November 28, 1991
Source: United States (US)
Launch site: AIR FORCE WESTERN TEST RANGE (AFWTR)

Note: This is SATELLITE DEBRIS
Your satellite tracking list
Your tracking list is empty





NASA's NSSDC Master Catalog

Two Line Element Set (TLE):
1 29070U 91082BR  17085.25675908 +.00001240 +00000-0 +48369-3 0  9991
2 29070 098.7853 105.2330 0014615 043.5943 316.6391 14.31468435646867
Source of the keplerian elements: AFSPC